Home > Weather > Vallejo > Past weeks

Flag for USA Past Weather in Vallejo, California, USA — Yesterday and Last 2 Weeks

Now
67 °F

Scattered clouds.


Feels Like: 67 °F
Forecast: 56 / 74 °F
Wind: 7 mph from West

Location: Napa County Airport

Current Time: Aug 29, 2016 at 12:58:33 PM

Latest Report: Aug 29, 2016 at 11:54 AM


Visibility: 10 mi

Pressure: 30.06 "Hg

Humidity: 63%

Dew Point: 54 °F

Location of VallejoLocation

Past Weather in Vallejo — Graph

°F

Vallejo Temperature Yesterday

Maximum temperature yesterday: 76 °F (at 2:54 PM)
Minimum temperature yesterday: 56 °F (at 12:54 AM)
Average temperature yesterday: 64 °F

High & Low Weather Summary for the Past Weeks

 TemperatureHumidityPressure
High79 °F (Aug 14, 3:54 PM)97% (Aug 16, 2:54 AM)30.09 "Hg (Aug 16, 2:54 AM)
Low52 °F (Aug 15, 12:54 AM)41% (Aug 22, 3:54 PM)29.75 "Hg (Aug 17, 6:54 PM)
Average63 °F76%29.91 "Hg
* Reported Aug 14 10:54 AM — Aug 29 10:54 AM, Vallejo, Weather by CustomWeather, © 2016

Note: Actual official high and low records may vary slightly from our data, if they occured in-between our weather recording intervals... More about our weather records

Advertising

Vallejo Weather History for the Previous 24 Hours

Scroll right to see more
 ConditionsComfort  
Time TempWeatherWind HumidityBarometerVisibility
10:54 AM
Mon, Aug 29
62 °FOvercast.3 mph75%30.08 "Hg10 mi
9:54 AM60 °FOvercast.7 mph80%30.08 "Hg10 mi
8:54 AM58 °FMostly cloudy.8 mph84%30.09 "Hg10 mi
7:54 AM56 °FMostly cloudy.7 mph87%30.08 "Hg10 mi
6:54 AM56 °FOvercast.7 mph87%30.06 "Hg10 mi
5:54 AM57 °FOvercast.8 mph87%30.06 "Hg10 mi
4:54 AM57 °FOvercast.9 mph87%30.05 "Hg10 mi
3:54 AM55 °FClear.8 mph93%30.05 "Hg10 mi
2:54 AM55 °FClear.8 mph90%30.05 "Hg10 mi
1:54 AM56 °FClear.8 mph87%30.04 "Hg10 mi
12:54 AM57 °FClear.13 mph87%30.04 "Hg10 mi
11:54 PM
Sun, Aug 28
57 °FClear.9 mph83%30.04 "Hg10 mi
10:54 PM58 °FClear.14 mph84%30.03 "Hg10 mi
9:54 PM59 °FClear.16 mph81%30.03 "Hg10 mi
8:54 PM60 °FClear.8 mph75%30.01 "Hg10 mi
7:54 PM65 °FSunny.7 mph63%30.00 "Hg10 mi
6:54 PM70 °FSunny.5 mph61%29.99 "Hg10 mi
5:54 PM73 °FSunny.14 mph55%29.99 "Hg10 mi
4:54 PM76 °FSunny.16 mph50%29.98 "Hg10 mi
3:54 PM76 °FSunny.13 mph50%30.00 "Hg10 mi
2:54 PM76 °FSunny.13 mph45%30.01 "Hg10 mi
1:54 PM74 °FSunny.12 mph48%30.03 "Hg10 mi
12:54 PM72 °FSunny.10 mph52%30.04 "Hg10 mi
Weather by CustomWeather, © 2016

See weather overviewHow to use our weather pages